RFD12 MMMY-KMFE

Flight info

Callsign RFD12
Flight time 0h 42m
Altitude 11000
Route DOTOR1A DOTOR V35 REX
Aircraft C208/L-SDFGR/C

Departure

Time 2026-05-06 19:42
Airport Monterrey International Airport (MMMY)

Arrival

Time 2026-05-06 20:24
Airport McAllen Miller International Airport (KMFE)
Time Latitude Longitude Altitude Speed Heading
2026-05-06 19:25 25.77809 -100.11244 1330 ft 0 kts 211°
2026-05-06 19:37 25.77797 -100.11229 1330 ft 5 kts 57°
2026-05-06 19:37 25.77828 -100.11210 1330 ft 6 kts 28°
2026-05-06 19:37 25.77865 -100.11188 1330 ft 6 kts 28°
2026-05-06 19:37 25.77902 -100.11183 1330 ft 6 kts 300°
2026-05-06 19:38 25.77920 -100.11220 1330 ft 6 kts 300°
2026-05-06 19:38 25.77941 -100.11260 1330 ft 6 kts 299°
2026-05-06 19:38 25.77965 -100.11299 1330 ft 7 kts 304°
2026-05-06 19:38 25.77991 -100.11344 1329 ft 7 kts 300°
2026-05-06 19:39 25.78017 -100.11394 1330 ft 8 kts 299°
2026-05-06 19:39 25.78044 -100.11448 1329 ft 8 kts 300°
2026-05-06 19:39 25.78074 -100.11506 1329 ft 9 kts 300°
2026-05-06 19:39 25.78111 -100.11567 1329 ft 10 kts 303°
2026-05-06 19:40 25.78148 -100.11634 1329 ft 11 kts 300°
2026-05-06 19:40 25.78187 -100.11709 1329 ft 11 kts 299°
2026-05-06 19:40 25.78229 -100.11787 1329 ft 12 kts 307°
2026-05-06 19:40 25.78298 -100.11785 1329 ft 11 kts 32°
2026-05-06 19:41 25.78363 -100.11740 1329 ft 11 kts 31°
2026-05-06 19:41 25.78398 -100.11690 1330 ft 4 kts 120°
2026-05-06 19:41 25.78385 -100.11665 1330 ft 4 kts 121°
2026-05-06 19:41 25.78373 -100.11642 1330 ft 4 kts 119°
2026-05-06 19:42 25.78226 -100.11393 1330 ft 75 kts 121°
2026-05-06 19:42 25.77888 -100.10751 1432 ft 109 kts 121°
2026-05-06 19:42 25.77496 -100.10016 1944 ft 110 kts 124°
2026-05-06 19:42 25.77083 -100.09242 2224 ft 125 kts 118°
2026-05-06 19:43 25.76651 -100.08396 2529 ft 125 kts 118°
2026-05-06 19:43 25.76215 -100.07555 2862 ft 127 kts 116°
2026-05-06 19:43 25.76199 -100.06612 3161 ft 128 kts 65°
2026-05-06 19:43 25.76610 -100.05737 3442 ft 130 kts 65°
2026-05-06 19:44 25.76989 -100.04826 3717 ft 130 kts 65°
2026-05-06 19:44 25.77357 -100.03902 4007 ft 131 kts 64°
2026-05-06 19:44 25.77710 -100.02966 4349 ft 132 kts 65°
2026-05-06 19:44 25.78031 -100.02000 4611 ft 136 kts 75°
2026-05-06 19:45 25.78039 -100.00937 4928 ft 139 kts 90°
2026-05-06 19:45 25.78053 -99.99862 5196 ft 140 kts 83°
2026-05-06 19:45 25.78080 -99.98765 5468 ft 143 kts 85°
2026-05-06 19:45 25.78076 -99.97653 5738 ft 145 kts 86°
2026-05-06 19:46 25.78074 -99.96534 5978 ft 146 kts 86°
2026-05-06 19:46 25.78071 -99.95396 6234 ft 148 kts 86°
2026-05-06 19:46 25.78073 -99.94258 6488 ft 148 kts 86°
2026-05-06 19:46 25.78074 -99.93101 6710 ft 152 kts 87°
2026-05-06 19:47 25.78073 -99.91926 6933 ft 153 kts 88°
2026-05-06 19:47 25.78073 -99.90749 7142 ft 153 kts 88°
2026-05-06 19:47 25.78073 -99.89569 7361 ft 154 kts 89°
2026-05-06 19:47 25.78073 -99.88374 7572 ft 155 kts 89°
2026-05-06 19:48 25.78072 -99.87170 7786 ft 156 kts 89°
2026-05-06 19:48 25.78073 -99.85960 7998 ft 158 kts 89°
2026-05-06 19:48 25.78073 -99.84749 8209 ft 159 kts 90°
2026-05-06 19:48 25.78072 -99.83518 8416 ft 160 kts 90°
2026-05-06 19:49 25.78072 -99.82283 8631 ft 161 kts 91°
2026-05-06 19:49 25.78070 -99.81039 8837 ft 162 kts 91°
2026-05-06 19:49 25.78071 -99.79788 9040 ft 163 kts 91°
2026-05-06 19:49 25.78069 -99.78525 9247 ft 164 kts 92°
2026-05-06 19:50 25.78067 -99.77257 9453 ft 165 kts 92°
2026-05-06 19:50 25.78066 -99.75977 9648 ft 166 kts 92°
2026-05-06 19:50 25.78066 -99.74696 9843 ft 166 kts 91°
2026-05-06 19:50 25.78066 -99.73415 9970 ft 167 kts 92°
2026-05-06 19:51 25.78063 -99.72120 10083 ft 169 kts 93°
2026-05-06 19:51 25.78060 -99.70813 10249 ft 169 kts 94°
2026-05-06 19:51 25.78059 -99.69502 10420 ft 170 kts 94°
2026-05-06 19:51 25.78058 -99.68189 10600 ft 170 kts 94°
2026-05-06 19:52 25.78055 -99.66872 10760 ft 171 kts 94°
2026-05-06 19:52 25.78053 -99.65546 10926 ft 172 kts 94°
2026-05-06 19:52 25.78050 -99.64195 10992 ft 180 kts 94°
2026-05-06 19:52 25.78045 -99.62780 11005 ft 187 kts 94°
2026-05-06 19:53 25.78041 -99.61322 11008 ft 191 kts 94°
2026-05-06 19:53 25.78038 -99.59833 11008 ft 195 kts 94°
2026-05-06 19:53 25.78035 -99.58321 11005 ft 197 kts 94°
2026-05-06 19:53 25.78031 -99.56797 11004 ft 198 kts 94°
2026-05-06 19:54 25.78028 -99.55266 11005 ft 199 kts 94°
2026-05-06 19:54 25.78027 -99.53733 11002 ft 199 kts 94°
2026-05-06 19:54 25.78022 -99.52194 11001 ft 199 kts 94°
2026-05-06 19:54 25.78017 -99.50659 11000 ft 200 kts 94°
2026-05-06 19:55 25.78012 -99.49117 10999 ft 199 kts 94°
2026-05-06 19:55 25.78008 -99.47583 10998 ft 199 kts 94°
2026-05-06 19:55 25.78006 -99.46051 10991 ft 198 kts 94°
2026-05-06 19:55 25.78000 -99.44520 10999 ft 199 kts 94°
2026-05-06 19:56 25.77995 -99.42984 10994 ft 199 kts 94°
2026-05-06 19:56 25.77990 -99.41451 10996 ft 198 kts 94°
2026-05-06 19:56 25.77986 -99.39919 10996 ft 199 kts 94°
2026-05-06 19:56 25.77981 -99.38384 11000 ft 199 kts 94°
2026-05-06 19:57 25.77973 -99.36849 10998 ft 199 kts 94°
2026-05-06 19:57 25.77968 -99.35319 11000 ft 198 kts 94°
2026-05-06 19:57 25.77964 -99.33814 10992 ft 197 kts 94°
2026-05-06 19:57 25.77959 -99.32293 10992 ft 197 kts 94°
2026-05-06 19:58 25.77954 -99.30776 10993 ft 197 kts 94°
2026-05-06 19:58 25.77947 -99.29260 10989 ft 197 kts 95°
2026-05-06 19:58 25.77939 -99.27743 10993 ft 197 kts 95°
2026-05-06 19:58 25.77934 -99.26226 10992 ft 197 kts 94°
2026-05-06 19:59 25.77926 -99.24705 10992 ft 197 kts 95°
2026-05-06 19:59 25.77919 -99.23184 10996 ft 197 kts 94°
2026-05-06 19:59 25.77913 -99.21660 10993 ft 197 kts 95°
2026-05-06 19:59 25.78037 -99.20141 10985 ft 200 kts 77°
2026-05-06 20:00 25.78423 -99.18657 10994 ft 200 kts 77°
2026-05-06 20:00 25.78777 -99.17166 10997 ft 200 kts 78°
2026-05-06 20:00 25.79131 -99.15678 10996 ft 200 kts 77°
2026-05-06 20:00 25.79489 -99.14184 10994 ft 200 kts 77°
2026-05-06 20:01 25.79847 -99.12694 10997 ft 200 kts 77°
2026-05-06 20:01 25.80091 -99.11682 10998 ft 200 kts 77°
2026-05-06 20:01 25.80449 -99.10194 10994 ft 200 kts 77°
2026-05-06 20:01 25.80924 -99.08218 10994 ft 199 kts 77°
2026-05-06 20:02 25.81161 -99.07231 10996 ft 200 kts 77°
2026-05-06 20:02 25.81518 -99.05743 10996 ft 200 kts 77°
2026-05-06 20:02 25.81874 -99.04252 11000 ft 200 kts 77°
2026-05-06 20:02 25.82232 -99.02765 11002 ft 199 kts 77°
2026-05-06 20:03 25.82588 -99.01278 11003 ft 200 kts 77°
2026-05-06 20:03 25.82944 -98.99789 11002 ft 199 kts 77°
2026-05-06 20:03 25.83301 -98.98304 11001 ft 199 kts 77°
2026-05-06 20:03 25.83655 -98.96819 11001 ft 199 kts 77°
2026-05-06 20:04 25.84011 -98.95336 11002 ft 199 kts 77°
2026-05-06 20:04 25.84363 -98.93858 10999 ft 198 kts 77°
2026-05-06 20:04 25.84717 -98.92377 10995 ft 198 kts 77°
2026-05-06 20:04 25.85068 -98.90907 11002 ft 198 kts 77°
2026-05-06 20:05 25.85421 -98.89432 11001 ft 197 kts 77°
2026-05-06 20:05 25.85771 -98.87958 10999 ft 197 kts 77°
2026-05-06 20:05 25.86124 -98.86483 10998 ft 198 kts 77°
2026-05-06 20:05 25.86475 -98.85007 10996 ft 198 kts 77°
2026-05-06 20:06 25.86828 -98.83527 11001 ft 198 kts 77°
2026-05-06 20:06 25.87178 -98.82049 11005 ft 198 kts 77°
2026-05-06 20:06 25.87532 -98.80570 11008 ft 198 kts 77°
2026-05-06 20:06 25.87884 -98.79091 11009 ft 198 kts 77°
2026-05-06 20:07 25.88561 -98.77785 11001 ft 196 kts 40°
2026-05-06 20:07 25.89648 -98.76880 11005 ft 195 kts 31°
2026-05-06 20:07 25.90758 -98.76015 11008 ft 195 kts 33°
2026-05-06 20:07 25.91831 -98.75088 11009 ft 196 kts 36°
2026-05-06 20:08 25.92882 -98.74121 11011 ft 196 kts 37°
2026-05-06 20:08 25.93937 -98.73155 11013 ft 197 kts 36°
2026-05-06 20:08 25.94995 -98.72192 11010 ft 196 kts 36°
2026-05-06 20:08 25.95338 -98.71879 10980 ft 198 kts 37°
2026-05-06 20:09 25.95920 -98.71347 10875 ft 204 kts 37°
2026-05-06 20:09 25.97018 -98.70342 10599 ft 214 kts 37°
2026-05-06 20:09 25.98176 -98.69279 10301 ft 217 kts 37°
2026-05-06 20:09 25.99340 -98.68212 10004 ft 216 kts 37°
2026-05-06 20:10 26.00494 -98.67160 9723 ft 212 kts 36°
2026-05-06 20:10 26.01634 -98.66125 9431 ft 210 kts 36°
2026-05-06 20:10 26.02759 -98.65097 9154 ft 208 kts 36°
2026-05-06 20:10 26.03872 -98.64079 8879 ft 206 kts 36°
2026-05-06 20:11 26.04974 -98.63072 8607 ft 204 kts 36°
2026-05-06 20:11 26.06066 -98.62073 8344 ft 202 kts 36°
2026-05-06 20:11 26.07148 -98.61083 8077 ft 201 kts 36°
2026-05-06 20:11 26.08223 -98.60103 7812 ft 199 kts 36°
2026-05-06 20:12 26.09286 -98.59127 7560 ft 197 kts 36°
2026-05-06 20:12 26.10340 -98.58164 7291 ft 195 kts 36°
2026-05-06 20:12 26.11381 -98.57210 7035 ft 193 kts 35°
2026-05-06 20:12 26.12412 -98.56266 6778 ft 191 kts 36°
2026-05-06 20:13 26.13434 -98.55329 6528 ft 189 kts 35°
2026-05-06 20:13 26.14444 -98.54405 6281 ft 187 kts 35°
2026-05-06 20:13 26.15443 -98.53492 6026 ft 185 kts 36°
2026-05-06 20:13 26.16427 -98.52589 5794 ft 182 kts 36°
2026-05-06 20:14 26.17407 -98.51695 5562 ft 182 kts 36°
2026-05-06 20:14 26.18380 -98.50802 5322 ft 181 kts 37°
2026-05-06 20:14 26.19354 -98.49910 5071 ft 182 kts 37°
2026-05-06 20:14 26.20327 -98.49017 4838 ft 181 kts 38°
2026-05-06 20:15 26.21302 -98.48120 4594 ft 182 kts 38°
2026-05-06 20:15 26.22279 -98.47222 4364 ft 181 kts 38°
2026-05-06 20:15 26.23235 -98.46345 4123 ft 179 kts 39°
2026-05-06 20:15 26.24200 -98.45458 3898 ft 176 kts 39°
2026-05-06 20:16 26.25127 -98.44612 3673 ft 173 kts 39°
2026-05-06 20:16 26.26049 -98.43764 3456 ft 170 kts 39°
2026-05-06 20:16 26.26942 -98.42943 3248 ft 164 kts 39°
2026-05-06 20:16 26.27810 -98.42149 3040 ft 160 kts 39°
2026-05-06 20:17 26.28663 -98.41366 2832 ft 158 kts 40°
2026-05-06 20:17 26.29507 -98.40589 2628 ft 157 kts 39°
2026-05-06 20:17 26.30348 -98.39815 2418 ft 156 kts 40°
2026-05-06 20:17 26.31071 -98.38939 2215 ft 152 kts 63°
2026-05-06 20:18 26.31342 -98.37838 2025 ft 145 kts 87°
2026-05-06 20:18 26.31187 -98.36789 1995 ft 131 kts 111°
2026-05-06 20:18 26.30728 -98.35955 1988 ft 126 kts 133°
2026-05-06 20:18 26.30026 -98.35383 1991 ft 126 kts 155°
2026-05-06 20:19 26.29358 -98.34825 1863 ft 128 kts 121°
2026-05-06 20:19 26.28690 -98.34212 1904 ft 122 kts 143°
2026-05-06 20:19 26.28071 -98.33603 1986 ft 118 kts 141°
2026-05-06 20:19 26.27456 -98.33027 2015 ft 115 kts 140°
2026-05-06 20:20 26.26839 -98.32458 2013 ft 115 kts 141°
2026-05-06 20:20 26.26222 -98.31893 2008 ft 114 kts 141°
2026-05-06 20:20 26.25601 -98.31329 1916 ft 116 kts 141°
2026-05-06 20:20 26.25033 -98.30800 1787 ft 100 kts 141°
2026-05-06 20:21 26.24507 -98.30316 1661 ft 99 kts 141°
2026-05-06 20:21 26.23969 -98.29823 1536 ft 101 kts 141°
2026-05-06 20:21 26.23429 -98.29327 1407 ft 101 kts 141°
2026-05-06 20:21 26.22886 -98.28832 1279 ft 101 kts 141°
2026-05-06 20:22 26.22346 -98.28337 1149 ft 101 kts 141°
2026-05-06 20:22 26.21805 -98.27842 1027 ft 100 kts 141°
2026-05-06 20:22 26.21265 -98.27350 905 ft 100 kts 140°
2026-05-06 20:22 26.20791 -98.26915 793 ft 100 kts 140°
2026-05-06 20:23 26.20251 -98.26422 663 ft 100 kts 139°
2026-05-06 20:23 26.19713 -98.25929 533 ft 101 kts 136°
2026-05-06 20:23 26.19172 -98.25440 375 ft 98 kts 138°
2026-05-06 20:23 26.18654 -98.24966 242 ft 96 kts 138°
2026-05-06 20:24 26.18152 -98.24509 120 ft 84 kts 139°
2026-05-06 20:24 26.17778 -98.24165 108 ft 55 kts 135°
2026-05-06 20:24 26.17780 -98.24017 102 ft 18 kts
2026-05-06 20:24 26.17838 -98.24022 101 ft 4 kts 48°
2026-05-06 20:25 26.17858 -98.23994 100 ft 5 kts 52°
2026-05-06 20:25 26.17932 -98.23896 100 ft 10 kts 32°
2026-05-06 20:25 26.17992 -98.23916 100 ft 10 kts 335°
2026-05-06 20:25 26.18018 -98.23929 100 ft 0 kts 335°